Station FFIA2 - Five Fingers, AK Image indicating link to RSS feed of recent meteorological observations for station FFIA2


Conditions at FFIA2 as of
(12:00 am AKDT)
0800 GMT on 04/14/2024:
     

Click on the graph icon in the table below to see a time series plot of the last five days of that observation.

5-day plot - Wind Direction Wind Direction (WDIR): S ( 180 deg true )
5-day plot - Wind Speed Wind Speed (WSPD): 15 kts
5-day plot - Wind Gust Wind Gust (GST): 17 kts
5-day plot - Atmospheric Pressure Atmospheric Pressure (PRES):29.98 in
5-day plot - Pressure Tendency Pressure Tendency (PTDY):+0.00 in ( Steady )
5-day plot - Air Temperature Air Temperature (ATMP): 40.1 °F
5-day plot - Wind Chill Wind Chill (CHILL): 31.3 °F
5-day plot - Wind Speed at 10 Meters Wind Speed at 10 meters (WSPD10M): 14 kts
5-day plot - Wind Speed at 20 Meters Wind Speed at 20 meters (WSPD20M): 16 kts
5-day plot -  Wind Speed, Wind Gust and Atmospheric Pressure Combined plot of Wind Speed, Gust, and Air Pressure
Continuous Winds
TIME
(AKDT)
5-day plot - Wind Direction WDIR 5-day plot - Wind Speed WSPD
12:00 amS ( 176 deg ) 15 kts
11:50 pmS ( 171 deg ) 15 kts
11:40 pmS ( 173 deg ) 15 kts
11:30 pmS ( 180 deg ) 20 kts
11:20 pmS ( 179 deg ) 20 kts
11:10 pmS ( 174 deg ) 18 kts
 
Peak gust during the measurement hour
TIME
(AKDT)
5-day plot - Gust Direction GDR 5-day plot - Gust Speed GST
11:09 pmS ( 180 deg ) 23 kts
Previous observations
TIME
(AKDT)
5-day plot - Wind Direction
WDIR
 
5-day plot - Wind Speed
WSPD
kts
5-day plot - Wind Gust
GST
kts
5-day plot - Wave Height
WVHT
ft
5-day plot - Dominant Wave Period
DPD
sec
5-day plot - Average Wave Period
APD
sec
5-day plot - Mean Wave Direction
MWD
 
5-day plot - Atmospheric Pressure
PRES
in
5-day plot - Pressure Tendency
PTDY
in
5-day plot - Air Temperature
ATMP
°F
5-day plot - Water Temperature
WTMP
°F
5-day plot - Dew Point
DEWP
°F
5-day plot - Salinity
SAL
psu
5-day plot - Visibility
VIS
nmi
5-day plot - Tide (above MLLW)
TIDE
ft
2024-04-13 11:00 pm S 16 21----29.98+0.02 40.1-----
2024-04-13 10:00 pmSSE 12 16----29.98+0.01 40.1-----
2024-04-13 09:00 pm S 11 16----29.98+0.02 40.6-----
2024-04-13 08:00 pmSSE 19 21----29.96+0.01 40.5-----
2024-04-13 07:00 pm S 11 15----29.96+0.00 40.6-----
2024-04-13 06:00 pm SE 16 18----29.96-0.01 40.8-----
2024-04-13 05:00 pm S 16 17----29.95-0.01 42.6-----
2024-04-13 04:00 pmSSW 16 18----29.96+0.00 42.6-----
2024-04-13 03:00 pmSSE 8 14----29.96+0.01 43.0-----
2024-04-13 02:00 pm S 13 16----29.96+0.02 42.6-----
2024-04-13 01:00 pmSSE 12 15----29.96+0.02 41.7-----
2024-04-13 12:00 pmSSE 12 15----29.95+0.04 39.0-----
2024-04-13 11:00 amSSE 17 19----29.93+0.03 41.0-----
2024-04-13 10:00 am S 11 13----29.93+0.03 40.1-----
2024-04-13 09:00 amSSE 14 18----29.91+0.01 41.2-----
2024-04-13 08:00 amSSE 16 19----29.90+0.00 40.8-----
2024-04-13 07:00 amSSE 14 20----29.91+0.02 40.3-----
2024-04-13 06:00 amSSE 15 19----29.90+0.03 39.9-----
2024-04-13 05:00 amSSE 9 16----29.90+0.03 39.7-----
2024-04-13 04:00 amSSE 14 18----29.88+0.03 39.6-----
2024-04-13 03:00 amSSE 16 19----29.87+0.03 39.4-----
2024-04-13 02:00 amSSE 15 18----29.87+0.05 39.4-----
2024-04-13 01:00 amSSE 11 19----29.86+0.06 39.0-----
2024-04-13 12:00 amSSE 17 25----29.84+0.06 37.9-----